Time,TemperatureF,DewpointF,PressureIn,WindDirection,WindDirectionDegrees,WindSpeedMPH,WindSpeedGustMPH,Humidity,HourlyPrecipIn,Conditions,Clouds,dailyrainin,SoftwareType,DateUTC
2014-08-21 00:04:00,67.5,61.7,30.03,North,-999,0.0,0.0,82,0.00,,,-99.99,FreeWX 2.04,2014-08-21 04:04:00,
2014-08-21 00:09:00,67.5,61.7,30.03,North,-999,0.0,0.0,82,0.00,,,-99.99,FreeWX 2.04,2014-08-21 04:09:00,
2014-08-21 00:14:00,67.3,61.5,30.03,North,-999,0.0,0.0,82,0.00,,,-99.99,FreeWX 2.04,2014-08-21 04:14:00,
2014-08-21 00:19:00,67.1,61.7,30.03,North,-999,0.0,0.0,83,0.00,,,-99.99,FreeWX 2.04,2014-08-21 04:19:00,
2014-08-21 00:24:00,67.1,61.7,30.03,North,-999,0.0,0.0,83,0.00,,,-99.99,FreeWX 2.04,2014-08-21 04:24:00,
2014-08-21 00:29:00,67.1,62.1,30.03,North,-999,0.0,0.0,84,0.00,,,-99.99,FreeWX 2.04,2014-08-21 04:29:00,
2014-08-21 00:35:00,66.9,61.9,30.03,North,-999,0.0,0.0,84,0.00,,,-99.99,FreeWX 2.04,2014-08-21 04:35:00,
2014-08-21 00:40:00,66.9,61.9,30.03,North,-999,0.0,0.0,84,0.00,,,-99.99,FreeWX 2.04,2014-08-21 04:40:00,
2014-08-21 00:45:00,66.9,62.2,30.03,North,-999,0.0,0.0,85,0.00,,,-99.99,FreeWX 2.04,2014-08-21 04:45:00,
2014-08-21 00:50:00,66.7,62.1,30.03,North,-999,0.0,0.0,85,0.00,,,-99.99,FreeWX 2.04,2014-08-21 04:50:00,
2014-08-21 00:55:00,66.7,62.1,30.03,North,-999,0.0,0.0,85,0.00,,,-99.99,FreeWX 2.04,2014-08-21 04:55:00,
2014-08-21 01:00:00,66.7,62.1,30.03,North,-999,0.0,0.0,85,0.00,,,-99.99,FreeWX 2.04,2014-08-21 05:00:00,
2014-08-21 01:06:00,66.7,62.4,30.03,North,-999,0.0,0.0,86,0.00,,,-99.99,FreeWX 2.04,2014-08-21 05:06:00,
2014-08-21 01:11:00,66.6,62.2,30.03,North,-999,0.0,0.0,86,0.00,,,-99.99,FreeWX 2.04,2014-08-21 05:11:00,
2014-08-21 01:16:00,66.6,62.2,30.03,North,-999,0.0,0.0,86,0.00,,,-99.99,FreeWX 2.04,2014-08-21 05:16:00,
2014-08-21 01:21:00,66.6,62.2,30.03,North,-999,0.0,0.0,86,0.00,,,-99.99,FreeWX 2.04,2014-08-21 05:21:00,
2014-08-21 01:26:00,66.4,62.4,30.03,North,-999,0.0,0.0,87,0.00,,,-99.99,FreeWX 2.04,2014-08-21 05:26:00,
2014-08-21 01:31:00,66.4,62.4,30.03,North,-999,0.0,0.0,87,0.00,,,-99.99,FreeWX 2.04,2014-08-21 05:31:00,
2014-08-21 01:37:00,66.4,62.4,30.03,North,-999,0.0,0.0,87,0.00,,,-99.99,FreeWX 2.04,2014-08-21 05:37:00,
2014-08-21 01:42:00,66.4,62.4,30.03,North,-999,0.0,0.0,87,0.00,,,-99.99,FreeWX 2.04,2014-08-21 05:42:00,
2014-08-21 01:47:00,66.4,62.4,30.03,North,-999,0.0,0.0,87,0.00,,,-99.99,FreeWX 2.04,2014-08-21 05:47:00,
2014-08-21 01:52:00,66.4,62.8,30.03,North,-999,0.0,0.0,88,0.00,,,-99.99,FreeWX 2.04,2014-08-21 05:52:00,
2014-08-21 01:57:00,66.2,62.6,30.03,North,-999,0.0,0.0,88,0.00,,,-99.99,FreeWX 2.04,2014-08-21 05:57:00,
2014-08-21 02:02:00,66.2,62.6,30.03,North,-999,0.0,0.0,88,0.00,,,-99.99,FreeWX 2.04,2014-08-21 06:02:00,
2014-08-21 02:07:00,66.0,62.4,30.03,North,-999,0.0,0.0,88,0.00,,,-99.99,FreeWX 2.04,2014-08-21 06:07:00,
2014-08-21 02:13:00,66.0,62.4,30.03,North,-999,0.0,0.0,88,0.00,,,-99.99,FreeWX 2.04,2014-08-21 06:13:00,
2014-08-21 02:18:00,66.0,62.4,30.03,North,-999,0.0,0.0,88,0.00,,,-99.99,FreeWX 2.04,2014-08-21 06:18:00,
2014-08-21 02:23:00,66.0,62.6,30.03,North,-999,0.0,0.0,89,0.00,,,-99.99,FreeWX 2.04,2014-08-21 06:23:00,
2014-08-21 02:28:00,65.8,62.4,30.03,North,-999,0.0,0.0,89,0.00,,,-99.99,FreeWX 2.04,2014-08-21 06:28:00,
2014-08-21 02:33:00,65.8,62.4,30.03,North,-999,0.0,0.0,89,0.00,,,-99.99,FreeWX 2.04,2014-08-21 06:33:00,
2014-08-21 02:38:00,65.7,62.2,30.03,North,-999,0.0,0.0,89,0.00,,,-99.99,FreeWX 2.04,2014-08-21 06:38:00,
2014-08-21 02:44:00,65.7,62.2,30.03,North,-999,0.0,0.0,89,0.00,,,-99.99,FreeWX 2.04,2014-08-21 06:44:00,
2014-08-21 02:49:00,65.5,62.1,30.03,North,-999,0.0,0.0,89,0.00,,,-99.99,FreeWX 2.04,2014-08-21 06:49:00,
2014-08-21 02:54:00,65.5,62.1,30.03,North,-999,0.0,0.0,89,0.00,,,-99.99,FreeWX 2.04,2014-08-21 06:54:00,
2014-08-21 02:59:00,65.3,61.9,30.03,North,-999,0.0,0.0,89,0.00,,,-99.99,FreeWX 2.04,2014-08-21 06:59:00,
2014-08-21 03:04:00,65.3,62.2,30.03,North,-999,0.0,0.0,90,0.00,,,-99.99,FreeWX 2.04,2014-08-21 07:04:00,
2014-08-21 03:09:00,65.1,62.1,30.03,North,-999,0.0,0.0,90,0.00,,,-99.99,FreeWX 2.04,2014-08-21 07:09:00,
2014-08-21 03:14:00,65.1,62.1,30.03,North,-999,0.0,0.0,90,0.00,,,-99.99,FreeWX 2.04,2014-08-21 07:14:00,
2014-08-21 03:20:00,65.1,62.1,30.03,North,-999,0.0,0.0,90,0.00,,,-99.99,FreeWX 2.04,2014-08-21 07:20:00,
2014-08-21 03:25:00,64.9,61.9,30.03,North,-999,0.0,0.0,90,0.00,,,-99.99,FreeWX 2.04,2014-08-21 07:25:00,
2014-08-21 03:30:00,64.8,61.7,30.00,North,-999,0.0,0.0,90,0.00,,,-99.99,FreeWX 2.04,2014-08-21 07:30:00,
2014-08-21 03:35:00,64.8,61.7,30.00,North,-999,0.0,0.0,90,0.00,,,-99.99,FreeWX 2.04,2014-08-21 07:35:00,
2014-08-21 03:40:00,64.8,61.7,30.00,North,-999,0.0,0.0,90,0.00,,,-99.99,FreeWX 2.04,2014-08-21 07:40:00,
2014-08-21 03:45:00,64.6,61.5,30.03,North,-999,0.0,0.0,90,0.00,,,-99.99,FreeWX 2.04,2014-08-21 07:45:00,
2014-08-21 03:51:00,64.6,61.9,30.03,North,-999,0.0,0.0,91,0.00,,,-99.99,FreeWX 2.04,2014-08-21 07:51:00,
2014-08-21 03:56:00,64.6,61.9,30.03,North,-999,0.0,0.0,91,0.00,,,-99.99,FreeWX 2.04,2014-08-21 07:56:00,
2014-08-21 04:01:00,64.6,61.9,30.00,North,-999,0.0,0.0,91,0.00,,,-99.99,FreeWX 2.04,2014-08-21 08:01:00,
2014-08-21 04:06:00,64.4,61.7,30.00,North,-999,0.0,0.0,91,0.00,,,-99.99,FreeWX 2.04,2014-08-21 08:06:00,
2014-08-21 04:11:00,64.4,61.7,30.00,North,-999,0.0,0.0,91,0.00,,,-99.99,FreeWX 2.04,2014-08-21 08:11:00,
2014-08-21 04:16:00,64.4,61.7,30.00,North,-999,0.0,0.0,91,0.00,,,-99.99,FreeWX 2.04,2014-08-21 08:16:00,
2014-08-21 04:22:00,64.2,61.5,30.00,North,-999,0.0,0.0,91,0.00,,,-99.99,FreeWX 2.04,2014-08-21 08:22:00,
2014-08-21 04:27:00,64.2,61.5,30.03,North,-999,0.0,0.0,91,0.00,,,-99.99,FreeWX 2.04,2014-08-21 08:27:00,
2014-08-21 04:32:00,64.0,61.3,30.03,North,-999,0.0,0.0,91,0.00,,,-99.99,FreeWX 2.04,2014-08-21 08:32:00,
2014-08-21 04:37:00,64.0,61.3,30.03,North,-999,0.0,0.0,91,0.00,,,-99.99,FreeWX 2.04,2014-08-21 08:37:00,
2014-08-21 04:42:00,63.9,61.2,30.03,North,-999,0.0,0.0,91,0.00,,,-99.99,FreeWX 2.04,2014-08-21 08:42:00,
2014-08-21 04:47:00,63.9,61.2,30.03,North,-999,0.0,0.0,91,0.00,,,-99.99,FreeWX 2.04,2014-08-21 08:47:00,
2014-08-21 04:52:00,63.7,61.0,30.03,North,-999,0.0,0.0,91,0.00,,,-99.99,FreeWX 2.04,2014-08-21 08:52:00,
2014-08-21 04:58:00,63.7,61.0,30.03,North,-999,0.0,0.0,91,0.00,,,-99.99,FreeWX 2.04,2014-08-21 08:58:00,
2014-08-21 05:03:00,63.7,61.0,30.03,North,-999,0.0,0.0,91,0.00,,,-99.99,FreeWX 2.04,2014-08-21 09:03:00,
2014-08-21 05:08:00,63.5,60.8,30.03,North,-999,0.0,0.0,91,0.00,,,-99.99,FreeWX 2.04,2014-08-21 09:08:00,
2014-08-21 05:13:00,63.5,60.8,30.03,North,-999,0.0,0.0,91,0.00,,,-99.99,FreeWX 2.04,2014-08-21 09:13:00,
2014-08-21 05:18:00,63.5,61.2,30.03,North,-999,0.0,0.0,92,0.00,,,-99.99,FreeWX 2.04,2014-08-21 09:18:00,
2014-08-21 05:24:00,63.5,61.2,30.03,North,-999,0.0,0.0,92,0.00,,,-99.99,FreeWX 2.04,2014-08-21 09:24:00,
2014-08-21 05:29:00,63.5,61.2,30.03,North,-999,0.0,0.0,92,0.00,,,-99.99,FreeWX 2.04,2014-08-21 09:29:00,
2014-08-21 05:34:00,63.5,61.2,30.03,North,-999,0.0,0.0,92,0.00,,,-99.99,FreeWX 2.04,2014-08-21 09:34:00,
2014-08-21 05:39:00,63.3,61.0,30.03,North,-999,0.0,0.0,92,0.00,,,-99.99,FreeWX 2.04,2014-08-21 09:39:00,
2014-08-21 05:44:00,63.3,61.0,30.03,North,-999,0.0,0.0,92,0.00,,,-99.99,FreeWX 2.04,2014-08-21 09:44:00,
2014-08-21 05:49:00,63.1,60.8,30.03,North,-999,0.0,0.0,92,0.00,,,-99.99,FreeWX 2.04,2014-08-21 09:49:00,
2014-08-21 05:54:00,63.1,60.8,30.03,North,-999,0.0,0.0,92,0.00,,,-99.99,FreeWX 2.04,2014-08-21 09:54:00,
2014-08-21 06:00:00,63.1,60.8,30.03,North,-999,0.0,0.0,92,0.00,,,-99.99,FreeWX 2.04,2014-08-21 10:00:00,
2014-08-21 06:05:00,63.0,60.6,30.03,North,-999,0.0,0.0,92,0.00,,,-99.99,FreeWX 2.04,2014-08-21 10:05:00,
2014-08-21 06:10:00,63.0,60.6,30.03,North,-999,0.0,0.0,92,0.00,,,-99.99,FreeWX 2.04,2014-08-21 10:10:00,
2014-08-21 06:15:00,63.0,61.0,30.03,North,-999,0.0,0.0,93,0.00,,,-99.99,FreeWX 2.04,2014-08-21 10:15:00,
2014-08-21 06:20:00,63.0,61.0,30.03,North,-999,0.0,0.0,93,0.00,,,-99.99,FreeWX 2.04,2014-08-21 10:20:00,
2014-08-21 06:26:00,63.0,61.0,30.03,North,-999,0.0,0.0,93,0.00,,,-99.99,FreeWX 2.04,2014-08-21 10:26:00,
2014-08-21 06:31:00,63.0,61.0,30.03,North,-999,0.0,0.0,93,0.00,,,-99.99,FreeWX 2.04,2014-08-21 10:31:00,
2014-08-21 06:36:00,63.0,61.0,30.03,North,-999,0.0,0.0,93,0.00,,,-99.99,FreeWX 2.04,2014-08-21 10:36:00,
2014-08-21 06:41:00,63.0,61.0,30.03,North,-999,0.0,0.0,93,0.00,,,-99.99,FreeWX 2.04,2014-08-21 10:41:00,
2014-08-21 06:46:00,62.8,60.8,30.03,North,-999,0.0,0.0,93,0.00,,,-99.99,FreeWX 2.04,2014-08-21 10:46:00,
2014-08-21 06:51:00,63.0,61.0,30.03,North,-999,0.0,0.0,93,0.00,,,-99.99,FreeWX 2.04,2014-08-21 10:51:00,
2014-08-21 06:56:00,63.0,61.0,30.03,North,-999,0.0,0.0,93,0.00,,,-99.99,FreeWX 2.04,2014-08-21 10:56:00,
2014-08-21 07:02:00,63.1,61.2,30.03,North,-999,0.0,0.0,93,0.00,,,-99.99,FreeWX 2.04,2014-08-21 11:02:00,
2014-08-21 07:07:00,63.1,61.2,30.03,North,-999,0.0,0.0,93,0.00,,,-99.99,FreeWX 2.04,2014-08-21 11:07:00,
2014-08-21 07:12:00,63.1,61.2,30.06,North,-999,0.0,0.0,93,0.00,,,-99.99,FreeWX 2.04,2014-08-21 11:12:00,
2014-08-21 07:17:00,63.1,61.2,30.06,North,-999,0.0,0.0,93,0.00,,,-99.99,FreeWX 2.04,2014-08-21 11:17:00,
2014-08-21 07:22:00,63.3,61.3,30.06,North,-999,0.0,0.0,93,0.00,,,-99.99,FreeWX 2.04,2014-08-21 11:22:00,
2014-08-21 07:28:00,63.3,61.3,30.06,North,-999,0.0,0.0,93,0.00,,,-99.99,FreeWX 2.04,2014-08-21 11:28:00,
2014-08-21 07:33:00,63.5,61.5,30.06,North,-999,0.0,0.0,93,0.00,,,-99.99,FreeWX 2.04,2014-08-21 11:33:00,
2014-08-21 07:38:00,63.5,61.5,30.06,North,-999,0.0,0.0,93,0.00,,,-99.99,FreeWX 2.04,2014-08-21 11:38:00,